Overview Statistics Trail Chart Weather Telemetry Raw packets
 

This is the latest recevied weather packets stored in our database for station/object KD7AWQ. If no packets are shown the sender has not sent any weather packets the latest 10 day(s).

<< 91 92 93 94 95 96 97 >>
Time Temp. Humidity Pressure Rain* Wind** Luminosity Snow
1787766903 35.56° C 16% 1190 hPa 0 mm - 907 W/m² -
1787766598 35.56° C 16% 1189.8 hPa 0 mm - 945 W/m² -
1787766296 35.56° C 15% 1189.9 hPa 0 mm - 794 W/m² -
1787765991 35.56° C 15% 1189.7 hPa 0 mm - 934 W/m² -
1787765688 35.56° C 16% 1189.9 hPa 0 mm - 920 W/m² -
1787765384 35.56° C 15% 1189.8 hPa 0 mm - 916 W/m² -
1787765083 35° C 16% 1189.6 hPa 0 mm - 926 W/m² -
1787764778 34.44° C 16% 1189.9 hPa 0 mm - 894 W/m² -
1787764473 35° C 15% 1189.9 hPa 0 mm - 249 W/m² -
1787764169 34.44° C 15% 1189.9 hPa 0 mm - 303 W/m² -
1787763865 35° C 15% 1190 hPa 0 mm - 521 W/m² -
1787763559 35.56° C 15% 1189.9 hPa 0 mm - 862 W/m² -
1787763255 35° C 16% 1189.6 hPa 0 mm - 778 W/m² -
1787762955 34.44° C 16% 1189.8 hPa 0 mm - 700 W/m² -
1787762649 33.89° C 16% 1190 hPa 0 mm - 750 W/m² -
1787762347 33.89° C 16% 1189.9 hPa 0 mm - 734 W/m² -
1787762045 33.89° C 16% 1190.1 hPa 0 mm - 714 W/m² -
1787761740 33.33° C 16% 1190.1 hPa 0 mm - 696 W/m² -
1787761435 32.78° C 17% 1189.8 hPa 0 mm - 678 W/m² -
1787761130 33.33° C 17% 1189.9 hPa 0 mm - 657 W/m² -
1787760829 33.33° C 16% 1190.1 hPa 0 mm - 639 W/m² -
1787760527 33.33° C 17% 1189.8 hPa 0 mm - 620 W/m² -
1787760222 33.33° C 17% 1189.8 hPa 0 mm - 600 W/m² -
1787759918 33.33° C 17% 1189.9 hPa 0 mm - 583 W/m² -
1787759614 33.33° C 18% 1190 hPa 0 mm - 562 W/m² -

* Rain latest hour (hover to see other rain measurements)
** Current wind speed in m/s (hover to see current wind gust speed)